GLOBALSTAR M002 [-]

Last updated on Fri Dec 29 2023 00:02:56 GMT+0000 (Coordinated Universal Time)

1 25164U 98008C 23362.16463340 -.00000093 00000+0 -31611-3 0 9994 2 25164 51.9993 146.6823 0001132 178.0722 182.0102 11.61497714121739
UTC large
Height (km)
Speed (km/s)
/
Latitude / Longitude
Inclination (degrees)
Orbital Period (minutes)
Azimuth
Elevation
Range (km)
Doppler Factor

Next 0 passes for location: London (51.5072 / 0.1276)

Sorry there are no passes over London.